Tracking 18844 objects as of 21-Nov-2017
HD Live streaming from Space Station
objects crossing your sky now

COSMOS 1161

Track COSMOS 1161 now!
10-day predictions
COSMOS 1161 is classified as:


NORAD ID: 11696
Int'l Code: 1980-012F
Perigee: 1,474.4 km
Apogee: 1,509.8 km
Inclination: 74.0 °
Period: 115.7 minutes
Semi major axis: 7863 km
RCS: 0.693 m2 (medium)
Launch date: February 11, 1980
Source: Commonwealth of Independent States (former USSR) (CIS)
Launch site: PLESETSK MISSILE AND SPACE COMPLEX (PKMTR)
aabbcc
Your satellite tracking list
Your tracking list is empty




NASA's NSSDC Master Catalog

Two Line Element Set (TLE):
1 11696U 80012F   17325.20191352 -.00000029  00000-0 -89950-4 0  9993
2 11696  74.0203 327.1912 0022481 211.5313 222.0870 12.45128357717249
Source of the keplerian elements: AFSPC